Regional Weather Roundup
Issued by NWS Charleston, WV

Home | Current Version | Previous Version | Text Only | Print | Product List | Glossary On
Versions: 1 2 3 4 5 6 7 8 9 10 11 12 13 14 15 16 17 18 19 20 21 22 23 24 25 26 27 28 29 30 31 32 33 34 35 36 37 38 39 40 41 42 43 44 45 46 47 48 49 50
000
ASUS41 KRLX 231310
RWRRLX
West Virginia Regional Weather Roundup
National Weather Service Charleston WV
900 AM EDT THU MAR 23 2017

Note: "fair" indicates few or no clouds below 12,000 feet with no
significant weather and/or obstructions to visibility.

WVZ003-231400-
Northern Panhandle of West Virginia

CITY           SKY/WX    TMP DP  RH WIND       PRES   REMARKS
WHEELING       SUNNY     23   8  52 E12       30.52S
$$

WVZ009-231400-
Northwest West Virginia

CITY           SKY/WX    TMP DP  RH WIND       PRES   REMARKS
PARKERSBURG    SUNNY     28  11  48 E7        30.54R
$$

WVZ006-231400-
Western West Virginia

CITY           SKY/WX    TMP DP  RH WIND       PRES   REMARKS
HUNTINGTON     SUNNY     32  13  45 E7        30.46R
$$

WVZ015-231400-
West Central West Virginia

CITY           SKY/WX    TMP DP  RH WIND       PRES   REMARKS
CHARLESTON     MOSUNNY   31  16  54 NE6       30.46S
$$

WVZ022-031-231400-
North Central West Virginia

CITY           SKY/WX    TMP DP  RH WIND       PRES   REMARKS
CLARKSBURG     SUNNY     25  12  58 NE5       30.50F
MORGANTOWN     SUNNY     26  12  55 N3        30.52S
$$

WVZ025-035-042-045-231400-
Southern West Virginia

CITY           SKY/WX    TMP DP  RH WIND       PRES   REMARKS
BECKLEY        SUNNY     33  11  39 SE14G22   30.41S
LOGAN            N/A     34  18  51 CALM      30.41R
BLUEFIELD      SUNNY     32   8  36 SE9G21    30.42R
LEWISBURG      SUNNY     26  17  68 CALM      30.47S
$$

WVZ047-231400-
Northern Mountains of West Virginia

CITY           SKY/WX    TMP DP  RH WIND       PRES   REMARKS
ELKINS         SUNNY     24  18  77 CALM      30.48F
$$

WVZ052-231400-
Eastern Panhandle of West Virginia

CITY           SKY/WX    TMP DP  RH WIND       PRES   REMARKS
MARTINSBURG    SUNNY     28   7  41 VRB5      30.62R
PETERSBURG     SUNNY     26  19  73 CALM      30.60S
$$



USA.gov is the U.S. government's official web portal to all federal, state and local government web resources and services.